Theta_e
311 312 313 312 312 313 311 313 310 312 312 314 315 316 325 329 335 337 341 343 348 348 352 356 358 360 360 361 361 358 360 355 356 361 365 363 361 358 357 356 354 354 352 350
309 313 312 311 312 312 313 314 314 313 312 319 321 322 322 331 333 337 344 347 349 353 354 355 357 357 359 360 359 357 357 356 360 363 362 359 359 356 355 355 355 353 350 349
306 311 310 307 312 313 313 314 315 311 317 321 321 323 324 331 334 337 345 349 350 351 352 356 354 358 358 357 360 359 358 358 359 359 355 357 355 355 354 351 351 349 347 347
307 309 301 312 317 317 314 313 317 317 321 324 323 325 332 334 335 339 347 350 352 352 350 352 354 353 358 356 356 355 354 353 355 354 352 352 353 351 350 349 348 346 345 342
306 306 311 313 315 314 313 314 318 316 320 330 332 333 333 336 339 348 353 353 352 350 347 355 355 356 355 350 346 350 350 351 351 351 350 349 348 345 344 342 341 338 335 335
309 305 302 313 319 322 320 309 321 323 324 327 327 324 332 345 348 349 349 349 348 346 347 349 349 350 348 344 340 341 340 341 349 345 341 344 343 340 338 336 333 333 334 336
309 306 309 315 318 322 310 318 327 328 329 331 336 339 345 348 347 346 346 345 347 347 347 349 350 348 342 337 336 339 344 347 344 342 339 338 336 336 336 335 336 336 336 333
311 308 307 326 323 314 323 335 331 334 341 340 342 343 343 344 344 343 344 343 346 346 346 346 347 343 337 337 340 340 340 336 335 335 330 329 335 336 336 337 330 327 328 324
316 313 320 321 322 329 334 334 334 342 341 341 340 340 341 339 339 340 340 341 341 339 339 340 340 339 332 334 336 336 333 332 334 334 331 334 334 336 326 323 317 318 317 316
318 316 317 320 323 333 331 333 337 340 339 340 339 340 339 339 339 340 339 339 338 336 334 334 335 333 333 333 335 334 332 331 331 331 333 334 328 324 321 317 313 314 313 312
317 316 320 321 322 331 331 333 337 339 338 337 336 336 338 339 341 339 339 339 338 336 333 331 331 331 329 332 332 331 330 329 326 330 332 331 330 325 322 320 316 316 314 313
313 321 322 327 330 331 329 330 337 337 336 335 335 335 337 336 340 341 339 337 338 337 332 329 327 326 329 330 331 330 329 325 321 326 323 322 323 320 311 312 307 305 303 306
316 327 330 329 329 330 331 333 334 336 335 334 335 336 337 336 338 333 340 338 337 334 333 332 329 325 326 330 328 326 323 323 323 322 318 320 321 318 320 311 309 305 302 302
331 331 327 328 327 331 333 335 333 338 337 335 336 338 340 339 338 339 339 339 338 333 330 329 326 323 326 324 326 323 319 310 320 320 317 318 318 319 316 317 316 312 304 304
328 330 330 330 331 331 333 336 333 336 338 336 335 337 341 340 339 341 340 337 333 329 328 324 321 321 323 321 323 318 314 312 317 317 317 315 317 317 314 316 317 316 313 303
323 328 329 328 331 332 332 332 332 333 337 336 340 342 343 341 340 337 336 333 329 325 324 323 322 319 320 320 319 315 312 312 313 316 313 314 313 312 313 315 316 315 313 314
325 327 327 326 330 331 332 333 335 337 340 341 343 343 341 338 335 332 332 329 329 328 323 323 321 321 320 317 314 314 313 313 318 313 312 312 312 312 313 313 313 313 313 313
329 329 330 330 329 329 330 335 337 339 340 343 343 339 335 333 331 330 329 328 326 323 323 324 320 319 319 319 316 316 315 315 315 314 314 315 314 313 313 312 312 311 312 313
329 328 330 329 331 331 332 335 337 341 344 342 339 335 331 331 328 326 324 321 320 318 319 318 316 316 318 316 317 318 316 315 316 317 318 315 315 314 313 313 312 313 313 313
326 329 332 334 335 335 334 336 338 338 338 337 333 330 326 325 325 324 321 317 317 316 317 312 315 318 321 316 318 316 317 317 315 316 317 314 316 315 316 311 313 314 315 315
330 333 334 335 334 335 335 335 334 332 333 331 330 326 323 322 321 320 317 314 313 313 314 312 312 316 320 322 319 317 316 316 316 315 317 316 317 316 317 317 317 317 316 316
333 333 333 333 332 332 333 334 332 330 329 328 325 324 322 319 319 319 319 316 315 313 315 314 314 318 318 316 315 316 317 317 317 317 318 319 319 318 318 318 316 317 317 317
333 333 333 333 332 331 332 331 330 330 328 327 326 323 319 314 313 312 310 319 317 313 314 315 315 318 315 316 316 318 319 318 318 319 319 319 316 320 318 319 319 319 317 316
332 334 332 331 330 328 326 326 325 325 325 324 321 320 317 313 315 318 319 314 312 312 313 316 317 316 312 316 318 319 317 320 318 319 322 310 320 321 320 321 321 321 322 318
331 330 328 326 323 320 323 322 320 320 319 320 319 320 321 320 318 318 318 317 310 311 314 314 316 314 315 316 319 320 322 323 318 322 320 322 323 321 321 318 321 321 321 320
326 323 324 329 325 322 321 321 319 319 319 317 317 319 319 321 321 321 321 317 318 313 314 316 316 316 317 318 320 321 321 322 320 320 315 320 323 324 319 319 321 322 321 316
326 319 325 323 323 323 322 321 319 318 318 319 318 320 320 321 321 319 316 319 318 318 317 315 319 318 320 321 320 321 321 322 315 321 322 317 322 322 318 317 323 321 315 312
Wind_Speed
8 21 24 21 23 18 9 16 6 11 10 7 9 11 18 10 11 10 13 17 15 14 12 10 10 8 8 7 8 9 4 7 5 4 0 3 5 6 6 6 6 6 7 7
10 6 16 19 11 6 7 18 11 7 22 16 13 24 17 9 7 8 14 13 13 13 14 11 11 7 8 7 8 8 6 5 5 3 1 2 4 5 6 7 6 7 7 8
10 1 11 21 10 11 1 13 11 4 16 19 9 17 26 9 8 9 12 16 13 12 10 8 9 9 9 6 7 5 5 5 4 2 1 4 5 5 4 6 7 7 8 8
14 21 25 14 13 18 19 15 28 4 20 24 30 40 9 10 9 11 13 14 10 10 6 12 12 12 10 10 8 4 2 2 1 5 6 6 4 6 7 7 7 8 9 10
14 12 9 18 16 4 4 9 6 2 7 20 17 15 10 10 9 12 15 11 9 10 8 7 8 8 12 13 16 6 6 7 6 7 7 7 6 7 8 8 8 8 9 9
13 15 13 4 19 7 17 4 8 11 12 17 8 5 9 18 19 16 14 8 8 13 12 11 9 11 14 11 13 11 9 4 4 6 7 8 8 8 7 7 7 7 7 7
15 5 3 1 23 3 6 5 8 11 10 12 11 12 15 15 15 14 12 9 11 10 11 12 9 12 14 10 9 6 5 2 7 7 5 6 7 6 6 5 6 5 6 7
16 13 10 9 27 3 7 5 3 13 16 19 20 18 15 14 14 13 12 9 12 12 10 11 9 11 11 10 7 5 5 8 6 3 6 5 4 4 5 4 7 8 7 7
7 4 9 12 17 13 22 14 4 13 13 17 18 17 16 14 14 14 14 12 11 10 10 9 9 9 10 7 5 4 6 4 2 6 3 3 4 2 4 8 8 8 8 8
6 4 5 9 9 8 9 8 10 15 12 14 17 17 15 14 13 13 13 12 13 10 9 10 9 9 7 5 4 5 4 4 2 5 1 1 3 5 5 7 7 7 7 7
9 8 7 12 15 7 5 4 13 16 14 14 14 15 15 13 13 12 10 10 9 10 10 10 8 8 7 6 3 5 4 4 3 3 2 2 3 3 5 5 3 3 4 6
6 16 18 13 13 5 5 4 11 16 17 16 13 12 13 12 10 10 11 9 9 11 11 10 9 8 6 5 4 3 2 3 2 3 3 3 3 5 7 6 7 4 2 5
7 19 15 10 2 8 8 10 8 14 11 12 14 14 13 12 11 11 11 10 9 11 10 8 8 7 6 5 5 5 4 3 2 1 4 3 3 4 1 5 5 7 5 5
12 14 5 4 5 2 7 13 8 14 13 14 12 11 12 12 13 12 11 10 11 10 9 9 8 7 5 5 3 3 5 2 4 3 3 3 2 2 2 3 2 6 6 6
12 14 6 5 3 3 4 10 8 12 13 11 10 9 14 14 12 10 10 11 10 9 8 9 8 6 6 6 3 5 5 4 4 2 4 1 3 3 3 4 3 3 7 8
19 19 4 4 7 4 7 8 8 8 16 15 11 11 15 13 11 12 10 9 8 8 8 7 6 6 5 4 4 8 5 4 3 4 3 4 5 6 4 4 5 5 5 6
8 7 7 7 9 8 6 7 8 8 8 11 12 13 13 12 14 9 8 9 5 8 6 6 5 4 3 5 2 0 5 6 2 4 5 4 5 5 6 5 6 5 6 5
7 8 7 7 8 9 9 11 10 9 10 13 12 15 12 11 10 8 7 9 8 7 5 4 2 3 2 3 3 1 2 2 1 3 1 2 3 4 6 6 7 7 7 6
8 2 5 6 5 7 13 3 11 10 13 12 12 12 10 9 9 8 8 7 7 6 3 4 2 6 5 6 6 7 4 3 3 3 2 1 4 5 5 6 6 7 7 7
6 1 6 12 12 12 9 9 13 13 12 11 13 11 10 8 9 9 9 7 6 4 6 5 3 6 4 5 2 6 7 7 5 4 1 3 4 4 5 4 5 7 7 6
8 10 11 12 12 13 12 11 11 11 13 13 11 10 11 11 10 9 7 3 5 9 6 7 4 7 3 5 5 7 10 8 4 5 3 2 4 5 5 5 6 6 5 6
10 11 12 12 12 12 11 12 13 12 11 10 11 11 11 10 10 8 5 6 5 11 7 6 5 6 1 2 4 8 9 6 5 5 4 4 4 5 5 6 7 6 6 6
12 12 12 12 12 11 11 11 11 11 11 10 10 10 9 5 4 5 4 8 7 9 7 6 7 7 6 2 6 8 9 7 6 6 6 4 3 5 5 6 6 6 5 2
11 10 12 11 11 10 10 8 9 9 9 8 9 9 9 7 5 7 3 9 7 8 7 4 6 7 6 4 6 8 7 5 6 5 5 6 4 6 6 6 5 6 4 8
11 10 10 10 9 8 9 9 10 10 10 9 9 8 8 8 6 7 8 7 10 10 8 10 11 10 6 7 8 7 8 5 5 4 8 7 3 7 6 13 12 4 5 8
10 9 8 9 9 9 9 9 8 8 8 7 7 7 7 4 3 4 2 7 10 10 7 6 8 8 8 8 7 6 7 7 7 1 3 10 7 3 5 5 9 6 6 8
8 7 6 5 6 6 7 7 7 8 7 7 8 8 7 6 6 6 5 7 7 10 7 6 7 8 7 8 8 8 7 7 7 4 5 5 4 7 9 7 3 6 8 8
Wind_Direction
175 182 269 230 216 226 276 281 89 169 130 116 101 287 276 263 162 169 155 135 140 148 139 135 136 155 157 172 150 139 191 131 137 148 155 14 14 1 341 333 328 323 316 330
258 210 271 304 201 255 246 298 113 150 120 169 202 200 272 218 152 160 130 133 137 139 145 155 153 165 177 175 148 144 176 147 134 170 29 344 350 344 324 317 320 329 335 334
216 165 248 264 210 221 180 319 289 181 155 170 166 306 260 161 167 153 139 143 158 147 150 145 144 168 179 157 147 153 165 166 172 213 309 12 340 313 340 344 337 339 332 319
244 154 233 228 248 181 148 175 255 91 137 155 150 218 148 153 166 155 143 136 145 132 156 168 171 172 168 127 110 90 294 277 47 18 11 351 349 6 12 1 350 339 339 5
238 229 193 264 217 177 255 234 116 213 137 120 121 119 103 119 114 113 113 117 136 139 144 93 89 88 87 71 60 351 4 16 34 37 11 4 15 20 6 354 346 358 348 347
224 253 235 257 336 14 135 195 282 57 75 131 161 167 103 85 88 97 108 119 150 126 106 111 114 92 100 113 109 87 54 299 359 38 34 337 24 17 4 356 345 337 328 318
228 209 90 125 292 38 134 32 43 67 71 61 69 98 106 102 105 103 109 125 109 106 87 82 89 93 105 102 96 116 178 134 52 33 327 50 29 357 337 325 298 301 346 350
216 207 124 33 243 196 159 347 82 88 97 103 108 112 117 116 113 118 115 115 85 90 92 91 95 99 94 85 86 73 61 54 44 13 32 14 4 298 296 320 16 10 7 8
29 11 318 337 317 326 137 161 73 100 115 118 121 123 123 119 128 129 120 113 110 113 108 99 101 98 100 91 86 85 77 84 70 87 15 11 286 357 22 48 23 6 13 7
163 274 19 339 298 284 341 108 118 109 116 122 125 128 127 134 139 133 141 135 124 138 123 113 106 100 98 105 86 87 96 95 22 116 43 54 19 47 48 51 23 13 15 1
87 204 138 233 243 237 239 180 122 120 129 123 134 137 141 146 139 146 149 137 139 133 132 123 115 106 100 83 107 113 101 105 322 133 117 34 80 57 81 70 83 35 23 9
326 183 197 171 201 171 198 158 140 143 138 148 150 148 145 145 145 134 138 135 137 131 130 130 123 109 99 102 84 53 111 81 74 344 40 40 12 118 52 131 160 160 173 53
260 313 80 80 270 181 174 174 158 116 144 148 153 152 146 140 143 132 133 136 134 134 131 126 120 117 116 114 116 126 86 348 88 2 37 359 36 23 120 203 161 196 189 176
323 318 49 162 152 176 187 118 136 138 166 156 137 139 140 145 139 154 148 147 131 128 137 138 130 124 133 122 113 74 122 215 291 71 58 8 22 326 345 23 34 169 210 206
304 282 226 129 165 148 151 118 176 166 143 150 173 163 146 136 154 142 130 126 134 144 137 137 138 140 136 132 129 84 46 25 327 27 106 277 315 321 358 6 4 334 153 209
270 257 180 192 144 201 157 181 173 159 165 159 158 130 121 142 125 112 121 142 156 155 156 137 137 149 173 135 215 131 122 149 241 310 33 26 5 340 348 342 315 323 329 325
261 201 225 201 162 191 192 199 164 136 121 117 112 108 107 113 119 131 147 156 144 114 132 138 138 134 189 221 187 56 157 155 134 264 31 31 352 346 321 311 314 330 332 334
264 279 225 201 175 205 205 183 109 123 114 109 110 106 120 128 126 132 127 104 112 118 130 108 123 151 304 334 340 127 306 30 40 355 17 305 352 294 282 339 323 333 325 318
257 223 288 280 153 161 124 47 105 99 95 106 120 107 122 116 120 110 123 134 132 141 120 190 95 293 109 53 1 312 296 327 299 278 282 157 281 283 346 303 329 323 314 316
238 55 67 72 83 94 88 83 86 90 98 107 102 101 101 114 125 130 126 156 177 193 190 115 145 274 164 136 243 295 289 274 283 286 253 291 281 357 288 320 315 308 317 339
117 100 90 87 86 85 90 95 101 104 97 111 109 102 100 94 115 144 162 161 126 68 51 89 241 255 219 160 222 257 269 277 294 306 301 313 3 327 326 314 300 307 332 336
103 97 98 98 97 97 101 98 96 101 105 107 115 124 132 140 156 155 125 139 132 165 186 207 222 245 144 306 268 283 289 317 333 320 352 349 313 297 296 298 304 325 330 301
107 110 113 109 102 102 109 119 131 133 140 143 145 150 158 138 132 136 169 192 193 193 212 224 222 159 164 241 266 278 292 306 321 341 336 327 272 299 307 326 332 327 327 285
107 112 106 109 113 116 121 129 123 123 123 122 129 148 149 157 184 230 230 148 174 170 216 245 162 179 205 250 274 276 281 299 311 320 288 320 332 311 322 310 314 320 308 305
105 108 113 122 126 126 117 120 120 128 142 139 148 171 194 216 207 180 155 165 161 182 214 189 178 202 238 254 260 271 274 295 278 296 323 285 274 282 10 354 308 330 317 313
142 150 150 184 139 153 154 175 154 156 165 154 173 204 200 187 136 155 186 146 175 202 236 215 196 209 237 258 273 292 285 283 315 33 325 297 285 285 196 232 309 343 337 32
182 134 137 153 149 154 161 186 152 166 180 154 160 192 190 192 179 197 216 192 199 198 199 221 210 207 233 245 251 259 269 272 256 235 255 289 315 42 359 288 323 17 32 26